Zurück zum Katalog

CZ-6A DEB

AktivSSO
NORAD 54289·DEBRIS·🇨🇳 China

Gestartet Nov 11, 2022 von Taiyuan Satellite Launch Center

Loading…

Nächste Überflüge (nächste 24 Stunden)

TLE

AktuellSource: Space-Track

Epoche: Sep 14, 2026, 10:22 UTC

1 54289U 22151AG  26257.43237082  .00000145  00000-0  10834-3 0  9999
2 54289  98.8569 251.4992 0055386 103.0201 257.7160 14.08273640196763

Verfolge CZ-6A DEB in Echtzeit mit AllMySat

Download on the App Store